Overview Statistics Trail Chart Weather Telemetry Raw packets
 

This is the latest recevied weather packets stored in our database for station/object KB1WCR. If no packets are shown the sender has not sent any weather packets the latest 10 day(s).

<< 59 60 61 62 63 64 65 >>
Time Temp. Humidity Pressure Rain* Wind** Luminosity Snow
1787992785 12.22° C 97% 1020.3 hPa 0 mm - 0 W/m² -
1787992484 12.78° C 96% 1020 hPa 0 mm - 0 W/m² -
1787992178 12.78° C 96% 1020.2 hPa 0 mm - 0 W/m² -
1787991879 12.78° C 96% 1020 hPa 0 mm - 0 W/m² -
1787991573 12.78° C 95% 1020 hPa 0 mm - 0 W/m² -
1787991270 13.33° C 95% 1019.7 hPa 0 mm - 0 W/m² -
1787990972 13.33° C 94% 1019.8 hPa 0 mm - 0 W/m² -
1787990664 13.33° C 94% 1019.8 hPa 0 mm - 0 W/m² -
1787990363 13.89° C 94% 1019.6 hPa 0 mm - 0 W/m² -
1787990059 13.89° C 93% 1019.6 hPa 0 mm - 0 W/m² -
1787989758 13.89° C 92% 1019.4 hPa 0 mm - 0 W/m² -
1787989454 14.44° C 91% 1019.5 hPa 0 mm - 0 W/m² -
1787989152 14.44° C 90% 1019.5 hPa 0 mm - 0 W/m² -
1787988850 15° C 89% 1019.5 hPa 0 mm - 0 W/m² -
1787988546 15.56° C 87% 1019.6 hPa 0 mm - 0 W/m² -
1787988241 16.11° C 84% 1019.3 hPa 0 mm - 0 W/m² -
1787987937 16.67° C 82% 1019.3 hPa 0 mm - 0 W/m² -
1787987631 16.67° C 81% 1019.5 hPa 0 mm - 0 W/m² -
1787987326 16.67° C 81% 1019.1 hPa 0 mm - 0 W/m² -
1787987022 17.22° C 80% 1019.4 hPa 0 mm - 0 W/m² -
1787986721 17.22° C 79% 1019.2 hPa 0 mm - 0 W/m² -
1787986419 17.22° C 78% 1019.1 hPa 0 mm - 0 W/m² -
1787986114 17.78° C 78% 1019.2 hPa 0 mm - 0 W/m² -
1787985809 17.78° C 77% 1019.1 hPa 0 mm - 0 W/m² -
1787985509 17.78° C 77% 1019.2 hPa 0 mm - 0 W/m² -

* Rain latest hour (hover to see other rain measurements)
** Current wind speed in m/s (hover to see current wind gust speed)